Location: Newark
(48.1500°N, 13.1167°E)
Time: 07:29:19
(UTC+00:00)

KAITUO 1B - Pass Details

Date: 07 December 2021
Orbit: 486 x 507 km, 97.4° (Epoch: 18 January)

Event Time Altitude Azimuth Distance (km) Brightness Sun altitude
Rises 17:35:14 0° 199° (SSW) 2,600 ? -22.6°
Reaches altitude 10° 17:37:41 10° 215° (SW) 1,724 ? -23.0°
Maximum altitude 17:40:35 21° 267° (W) 1,174 ? -23.4°
Drops below altitude 10° 17:43:35 10° 319° (NW) 1,762 ? -23.9°
Sets 17:46:00 0° 335° (NNW) 2,634 ? -24.3°
